Wind_Speed
29 30 32 33 35 35 34 33 27 27 30 28 24 19 16 13 8 8 9 11 6 3 8 6 4 6 5 4 3 4 4 2 3 6 3 3 3 1 1 1 1 2 1 0 2 1 2 17 5 7 4 5 8 11
29 29 31 32 34 35 36 34 27 31 32 29 23 18 15 11 9 8 5 5 6 5 7 18 25 31 22 23 4 1 2 3 3 1 2 4 2 4 3 1 3 2 2 1 4 2 8 10 3 1 4 7 7 9
30 30 30 32 34 35 36 34 28 34 34 30 24 18 14 12 7 8 11 8 6 3 5 3 5 2 6 17 22 3 2 3 1 3 2 2 2 1 2 1 2 1 1 1 4 5 12 15 5 5 9 9 12 12
29 29 30 32 34 35 36 36 30 35 37 32 26 20 15 12 8 8 9 6 5 4 3 6 8 11 13 9 14 25 3 2 2 1 1 1 3 1 2 1 1 1 3 3 2 6 12 6 8 13 16 13 12 14
29 30 30 31 34 35 36 37 34 33 39 34 28 21 15 11 8 8 12 13 14 1 3 5 17 8 15 7 7 15 14 5 1 2 2 2 1 3 2 1 1 3 4 1 1 2 5 11 12 16 15 13 13 12
29 30 30 31 33 35 37 38 34 35 39 36 27 16 14 9 6 4 3 5 14 11 2 4 4 5 12 4 12 6 4 4 2 2 3 2 2 3 0 1 6 12 6 2 3 4 8 19 14 15 9 15 13 11
29 30 31 31 33 35 37 39 30 39 41 38 26 17 15 11 8 4 3 5 6 8 2 4 4 4 6 5 2 2 2 1 2 1 2 1 2 1 1 2 10 11 11 10 4 5 7 11 10 17 16 15 11 10
29 30 31 32 32 34 35 37 30 41 42 38 23 17 8 6 5 4 3 7 16 3 1 2 4 4 4 3 2 2 2 1 1 2 2 1 3 2 1 4 9 12 12 12 10 10 7 11 16 15 16 10 11 11
29 30 31 31 32 33 34 36 32 42 43 29 18 5 2 2 2 2 7 2 8 2 1 1 3 3 4 3 1 2 2 2 1 1 2 3 3 2 5 8 12 12 9 13 14 13 12 11 12 13 15 15 13 11
29 31 31 31 30 32 33 34 30 41 38 21 6 2 3 1 12 2 3 1 2 1 2 3 2 3 1 2 2 3 3 2 2 2 3 1 1 2 6 9 8 8 7 9 11 10 11 14 13 16 15 15 13 12
29 30 32 31 30 30 31 28 31 39 16 12 7 3 11 10 2 2 0 2 1 2 2 3 3 3 2 1 1 1 1 2 2 1 2 1 1 4 8 9 7 8 9 11 11 12 11 10 13 15 15 14 14 12
28 28 30 30 28 29 28 20 29 30 18 14 17 14 7 3 2 1 1 2 1 3 3 2 3 3 2 1 1 1 1 2 1 3 1 2 3 8 8 8 7 5 8 10 12 14 15 12 11 11 12 13 13 17
27 28 28 30 29 29 16 25 31 33 26 3 3 3 2 1 4 3 1 3 2 2 3 3 4 0 2 3 2 3 3 1 3 3 1 3 6 8 8 6 7 7 8 9 11 11 15 15 19 15 12 16 20 19
25 27 30 31 29 12 23 29 31 28 5 2 2 6 3 3 4 4 4 4 5 4 4 1 2 1 1 3 1 2 2 2 3 4 3 3 6 10 10 8 6 9 9 11 13 12 12 14 14 18 18 18 16 13
22 26 29 29 7 18 28 32 31 13 5 3 3 4 5 4 3 3 3 3 4 2 1 1 0 2 2 3 1 2 4 2 3 4 3 5 6 7 8 7 9 9 8 9 9 11 12 12 14 14 20 19 17 17
20 25 10 7 17 29 32 32 10 4 3 3 4 2 2 1 4 2 3 4 2 2 2 2 1 2 1 2 3 3 2 4 4 4 5 4 6 6 5 5 5 7 8 9 7 11 14 13 14 17 17 14 17 16
16 8 6 22 27 29 29 5 3 4 4 4 4 3 4 2 5 3 4 4 3 2 2 2 1 5 2 2 1 4 4 4 5 4 3 5 7 7 6 6 5 5 9 8 11 12 15 21 21 17 12 12 14 17
16 24 22 23 22 21 6 4 3 3 6 5 2 4 3 3 3 4 4 3 3 3 3 4 4 2 4 3 4 4 5 4 4 5 5 6 6 6 5 5 6 7 7 11 15 15 17 17 11 10 17 20 19 15
22 24 23 19 11 7 3 4 3 4 6 3 4 2 2 3 4 4 3 3 4 2 3 2 3 3 4 4 5 4 4 4 4 2 3 5 7 6 7 8 9 8 9 7 8 8 15 18 14 16 18 19 12 21
19 21 21 5 5 3 3 4 4 3 4 3 2 2 3 4 3 3 4 4 4 3 3 4 5 4 5 4 5 5 4 3 2 3 4 4 4 8 6 6 4 10 11 10 10 10 12 11 13 16 19 20 18 12
14 8 5 3 5 11 3 3 3 4 4 2 2 2 4 1 3 3 3 4 3 3 3 4 4 5 5 4 6 4 4 4 4 4 4 3 4 8 8 12 14 12 4 4 4 7 11 10 15 16 16 18 20 22
6 6 3 5 6 4 4 8 4 4 2 3 3 2 3 3 4 4 2 2 4 4 4 4 4 4 3 5 5 11 9 8 6 6 8 5 2 3 4 8 7 4 6 7 9 6 11 15 21 20 19 24 28 27
6 4 4 4 5 5 6 7 4 4 3 3 3 3 3 2 3 1 1 3 4 3 4 4 4 6 5 4 5 5 7 5 2 3 4 4 5 5 6 9 8 5 5 12 17 16 15 20 22 22 21 23 26 30
7 3 4 4 7 4 2 3 2 2 2 1 1 4 3 3 2 1 4 4 4 2 3 4 3 2 2 3 3 2 5 7 5 5 2 3 2 2 4 8 9 10 10 11 11 16 18 17 19 18 20 18 17 19
4 6 4 6 4 4 4 3 3 1 5 5 2 4 4 2 1 3 4 4 3 3 3 2 4 4 4 3 1 4 6 10 4 3 2 1 2 4 4 5 5 6 12 13 12 12 14 13 14 15 16 17 15 14
8 6 10 6 3 4 4 3 5 5 3 3 5 3 2 0 1 5 3 2 2 3 3 5 5 4 2 3 3 3 6 9 9 3 2 1 2 3 2 2 2 5 10 10 7 7 10 11 12 13 14 16 17 13
6 7 4 3 2 2 3 2 2 1 3 5 3 1 1 3 5 4 3 3 3 3 5 10 14 5 5 5 11 11 8 11 4 4 8 6 4 2 4 4 3 7 8 7 8 8 9 10 10 10 10 12 15 15
6 3 6 4 4 3 3 2 3 5 4 3 2 4 4 5 4 2 1 8 18 11 1 2 7 11 10 12 13 12 9 11 14 12 11 7 7 7 6 7 7 6 7 8 10 10 10 9 9 9 10 10 11 13
5 4 4 4 4 4 6 7 5 4 3 4 5 3 3 2 1 2 6 12 18 19 7 4 3 4 4 8 12 9 12 15 9 5 5 3 1 3 5 4 6 8 8 10 12 14 13 11 9 9 9 9 9 11
5 5 5 5 6 7 6 6 3 3 3 3 2 0 2 2 4 9 13 16 11 6 15 8 7 11 7 6 3 10 6 3 4 4 4 3 3 2 2 2 1 3 3 4 6 7 7 7 8 9 10 11 11 12
3 5 4 5 9 10 7 5 3 2 2 3 4 4 5 3 2 3 1 8 10 11 6 2 4 8 13 11 7 2 2 5 6 6 6 6 5 3 3 3 2 3 1 1 4 6 7 8 9 10 9 10 10 9
5 8 6 5 4 4 4 4 4 4 4 4 4 4 3 3 4 2 17 13 5 2 4 9 8 6 11 14 13 9 6 8 6 4 4 3 2 1 2 2 3 2 4 7 9 9 9 8 8 10 13 12 12 13
3 3 4 2 2 3 4 4 3 3 2 3 4 4 4 3 2 2 8 17 10 7 7 7 10 13 13 12 14 16 13 11 9 6 5 6 6 6 6 7 8 9 11 11 10 8 10 10 10 10 10 12 12 12
Wind_Direction
336 340 345 348 349 349 347 345 345 346 346 337 336 335 333 326 311 301 278 273 247 260 279 229 234 220 266 261 290 318 342 335 350 17 338 329 293 84 319 56 8 129 278 10 181 242 127 356 5 61 272 284 286 318
333 337 340 344 347 348 347 345 344 349 349 341 336 334 328 324 312 283 271 282 276 246 263 275 265 261 244 244 265 262 252 251 220 317 341 296 15 353 332 186 12 77 41 336 12 12 328 338 335 297 284 272 306 309
330 334 337 339 344 347 347 346 340 348 351 347 340 333 327 317 296 276 269 284 280 271 288 332 250 337 261 238 225 215 251 217 212 202 301 291 289 240 7 21 299 167 228 199 331 333 316 305 289 352 338 320 307 312
327 330 335 336 339 344 345 345 337 343 348 347 341 329 321 309 287 268 259 264 234 264 299 284 325 311 299 264 222 214 272 69 82 284 302 302 289 102 237 320 314 212 194 202 252 307 324 63 338 332 327 322 318 321
325 327 331 335 337 340 343 343 338 337 344 344 342 324 315 302 290 271 258 248 229 240 285 288 318 341 13 0 254 221 233 238 240 273 244 250 266 325 272 158 247 196 204 215 134 183 271 283 318 319 324 313 321 322
325 325 328 332 334 337 341 342 339 337 341 343 336 320 308 290 276 301 336 245 229 202 281 305 282 291 314 305 300 245 201 204 207 204 257 281 244 179 279 280 23 8 349 180 239 227 225 283 301 303 310 314 311 315
324 326 325 327 332 336 339 342 340 340 340 341 335 317 296 266 225 188 210 305 201 196 279 299 302 267 313 292 344 348 62 151 250 202 234 251 282 143 328 347 336 338 336 332 295 310 296 295 310 312 315 306 301 293
319 324 324 323 328 334 339 341 338 341 340 338 334 323 314 220 251 288 24 332 209 251 50 283 278 324 24 298 2 349 359 23 120 329 1 270 347 23 37 330 335 326 318 311 343 329 267 295 313 314 317 306 311 312
317 321 323 322 324 332 337 339 334 339 339 336 333 310 278 187 181 168 338 94 168 219 222 283 290 298 344 276 22 343 18 13 254 8 22 15 354 41 318 334 328 325 305 301 308 316 311 315 320 324 323 318 317 313
311 315 320 320 323 329 336 337 337 339 342 340 339 304 326 97 310 135 152 27 14 240 212 250 217 265 234 290 42 355 4 12 5 18 310 33 176 359 277 273 269 292 304 293 299 300 319 318 321 321 314 304 302 301
307 309 316 318 322 327 334 340 344 346 348 352 359 323 313 328 181 39 6 83 310 281 229 248 232 280 310 333 348 25 6 335 339 328 336 353 351 275 272 288 293 272 274 268 266 270 276 276 281 288 299 305 302 300
306 310 314 318 320 326 335 340 344 342 326 298 286 298 290 327 26 90 291 317 212 243 270 223 275 222 309 54 108 322 74 353 342 316 318 47 279 280 295 297 301 282 265 269 263 268 273 272 276 279 284 288 296 300
306 308 313 318 320 324 328 333 335 331 329 287 213 263 55 296 29 160 220 299 301 253 259 337 320 346 357 43 36 56 48 273 353 38 8 238 277 310 320 315 311 306 307 295 298 288 283 284 284 278 281 280 283 292
302 305 310 314 319 319 329 327 327 328 293 235 212 297 176 250 240 189 191 207 233 227 274 259 264 96 18 51 13 359 263 48 44 30 270 267 315 312 314 314 329 318 316 323 326 313 293 289 287 281 272 273 278 282
305 307 308 312 311 320 325 327 324 307 197 228 125 245 229 242 250 214 226 293 242 231 152 17 24 92 11 79 37 51 17 346 188 217 238 258 292 293 302 320 328 319 314 307 306 330 328 314 312 294 274 265 264 267
305 306 312 288 307 319 325 324 320 177 238 227 231 257 225 331 276 214 197 254 226 148 82 61 93 47 330 136 62 197 115 225 253 227 238 280 291 286 274 284 286 286 294 299 314 319 330 330 322 316 294 275 267 263
299 259 310 310 317 319 322 291 238 224 221 224 251 212 176 232 229 240 191 236 155 98 233 117 58 221 104 45 284 188 204 221 227 261 256 246 260 276 276 283 289 301 312 321 312 319 329 327 334 331 341 300 268 265
266 294 307 315 331 329 297 240 246 241 244 235 207 223 191 208 213 240 238 188 152 185 142 214 130 126 198 191 261 234 231 252 249 255 265 281 283 289 274 272 318 319 310 310 315 324 328 326 327 334 333 336 324 271
283 295 303 317 330 304 311 279 219 256 240 238 250 239 201 230 226 235 229 196 199 161 127 151 159 198 227 216 226 241 242 220 242 278 275 284 301 305 323 343 354 344 330 318 310 325 336 327 319 323 338 336 337 330
286 287 299 280 208 227 268 265 239 257 268 245 256 245 214 217 222 210 227 188 161 162 171 199 212 216 199 222 203 220 220 207 173 304 294 290 306 348 347 342 325 324 329 349 339 331 347 342 349 351 344 338 337 342
289 290 286 217 204 216 271 273 260 225 276 269 287 185 252 285 239 222 230 156 143 199 227 213 220 238 208 239 224 207 225 180 197 199 245 286 314 333 323 335 352 354 350 326 329 327 343 348 342 332 352 352 342 344
246 258 292 218 224 227 249 235 227 285 277 259 304 212 237 257 243 231 171 166 213 220 201 199 221 228 203 218 215 212 223 208 233 265 268 266 314 342 327 327 344 331 331 332 339 327 335 347 349 349 353 1 4 3
239 233 225 233 229 229 253 178 213 220 233 265 354 278 266 261 235 94 232 224 239 228 202 205 219 205 205 210 200 211 207 201 233 266 253 251 252 248 293 313 340 342 338 339 352 353 355 2 0 1 1 6 8 8
196 226 228 219 199 251 278 237 220 250 263 280 231 264 254 231 354 280 246 237 242 198 186 217 168 130 79 125 190 231 226 212 221 261 293 228 296 313 274 292 320 342 348 343 358 7 18 16 7 6 10 11 9 14
210 222 215 225 219 224 226 241 224 167 240 205 212 267 271 44 245 260 240 258 232 239 233 206 199 187 173 172 203 232 205 193 177 159 25 198 324 330 334 336 314 326 354 358 9 12 13 31 18 16 14 13 15 8
215 227 190 197 218 206 217 230 214 217 195 214 231 250 31 112 290 256 249 256 250 233 203 201 194 169 202 175 177 206 206 186 164 122 191 195 194 186 244 279 304 314 355 359 358 21 31 44 31 22 19 15 18 26
223 239 228 233 188 226 272 249 265 238 220 218 240 286 144 212 245 254 295 335 292 283 252 217 180 168 176 192 213 210 190 174 176 171 137 114 82 17 322 292 299 324 348 15 31 38 48 53 45 34 29 21 22 32
219 196 199 215 202 202 238 208 216 214 228 220 143 198 210 208 232 254 261 356 353 341 48 163 201 210 216 219 204 173 149 137 128 127 127 116 69 52 52 56 43 26 36 48 54 51 52 59 62 57 55 44 29 32
208 194 173 215 213 220 212 201 216 219 198 159 186 222 243 242 222 347 323 322 328 343 287 130 76 132 133 157 157 148 157 158 143 165 195 219 316 12 69 88 71 51 42 44 49 59 63 65 65 73 71 65 57 55
230 174 192 201 203 221 219 192 220 218 208 212 191 300 288 279 270 299 291 286 285 305 287 266 180 165 146 141 114 97 113 165 229 187 161 173 189 117 87 126 71 101 75 24 28 62 65 60 61 68 79 76 73 69
156 166 213 212 240 244 237 223 237 200 213 222 210 206 243 232 300 293 1 320 297 278 221 158 169 166 143 126 118 99 81 100 106 114 130 144 172 213 255 271 238 209 206 65 64 62 66 73 74 81 73 75 79 80
184 194 198 216 253 249 204 195 209 216 215 196 228 199 182 148 218 32 9 359 349 331 240 189 146 141 153 151 155 154 158 141 113 102 94 102 131 122 88 127 162 149 107 90 82 83 84 79 77 86 88 82 79 85
208 185 202 242 302 258 223 151 207 259 185 191 222 190 173 157 120 22 26 31 38 45 49 87 113 124 133 142 139 134 131 121 111 99 91 92 97 105 112 124 128 122 108 95 92 95 93 87 90 89 87 93 95 92
Height
863 858 852 846 841 834 828 821 814 810 805 799 795 791 788 785 783 783 780 779 780 774 761 757 755 755 751 749 746 740 739 735 734 735 723 715 707 707 705 701 702 704 707 693 693 691 685 687 679 691 701 696 690 683
860 855 850 844 838 832 825 818 812 807 801 794 791 788 784 782 780 779 778 777 776 773 758 751 746 743 743 743 747 744 743 737 737 733 732 725 718 720 711 705 712 708 714 711 708 703 697 694 694 694 695 696 688 682
857 852 847 841 835 829 823 816 810 805 798 791 787 784 781 779 777 776 774 774 774 767 752 746 738 735 735 736 739 742 740 735 735 733 732 726 723 722 720 718 717 714 714 715 709 705 702 696 691 692 691 690 684 678
853 848 843 838 833 826 820 813 807 801 795 788 783 780 777 775 774 773 773 772 772 768 761 746 736 733 731 731 732 734 733 734 735 734 731 730 723 720 723 719 717 716 720 715 710 705 697 688 691 691 688 686 682 677
850 845 840 835 829 824 817 810 803 797 792 785 779 775 773 771 769 768 767 767 767 770 762 748 738 732 733 732 731 730 732 733 734 733 734 732 723 722 716 719 722 721 719 713 708 707 711 699 694 691 688 685 680 676
845 841 836 831 825 820 814 807 800 794 787 781 775 770 768 766 766 767 765 762 762 765 761 754 744 736 730 728 725 726 728 730 730 728 731 725 721 725 724 721 721 720 710 705 705 701 705 697 695 689 687 682 679 675
841 837 832 827 822 816 810 803 796 790 782 775 769 765 762 762 762 765 766 762 761 764 763 755 750 735 730 727 726 726 726 729 729 725 727 728 725 723 725 723 722 714 708 709 703 704 702 696 693 689 685 680 678 673
836 832 828 823 818 812 806 800 793 786 778 770 763 759 757 757 759 759 759 758 760 762 762 759 749 741 733 730 726 728 728 728 727 725 728 730 726 726 730 718 714 714 715 710 703 704 702 696 689 686 682 678 674 670
831 827 823 818 814 808 803 797 790 782 773 765 760 758 758 757 757 758 757 756 757 762 765 759 751 743 737 731 730 728 732 732 731 731 729 728 735 731 722 724 717 716 717 712 706 703 700 697 691 689 684 678 674 668
826 822 818 814 809 804 800 794 788 780 770 763 759 759 760 757 755 756 757 759 758 757 757 752 746 742 742 732 733 735 734 735 732 733 732 729 731 729 729 724 721 720 713 712 709 704 699 697 691 688 686 681 675 670
820 816 813 809 805 801 796 792 787 779 772 768 766 764 757 754 753 754 762 760 762 757 752 746 744 745 739 737 738 742 740 738 735 735 729 728 727 731 720 717 713 710 708 708 704 700 698 697 697 694 684 678 673 667
814 811 807 803 800 796 793 789 786 782 780 777 774 768 761 757 757 751 767 761 756 753 747 746 743 742 738 739 741 741 740 741 735 734 730 723 728 719 717 714 711 708 708 705 702 695 692 693 691 685 680 676 670 665
809 806 803 798 795 791 788 787 783 780 773 770 770 766 765 761 766 750 755 760 760 746 742 743 744 742 739 743 745 750 739 740 745 751 736 729 721 717 714 712 711 710 705 701 694 688 683 679 681 680 673 670 667 661
803 800 797 793 790 787 784 782 779 774 772 770 769 771 763 757 758 757 752 749 744 743 739 741 743 746 744 746 740 741 748 753 769 768 750 729 717 716 712 708 705 703 696 688 688 686 684 679 673 669 667 661 657 656
798 794 790 787 786 783 780 775 771 767 769 767 769 771 759 745 743 742 743 744 738 736 737 742 741 742 751 748 744 756 755 772 768 757 739 723 716 715 711 707 703 699 695 692 688 682 671 668 667 659 657 654 652 651
793 789 784 783 782 779 774 767 764 764 763 761 758 752 747 747 741 740 740 739 733 734 737 739 742 742 748 750 758 764 756 775 752 738 722 717 713 711 708 705 704 702 699 693 684 677 673 670 666 657 650 644 647 643
789 786 783 781 779 774 768 764 762 760 755 749 746 738 740 740 737 733 732 730 729 732 739 740 735 737 746 756 760 744 750 739 727 720 717 715 711 706 702 700 696 694 689 687 686 681 677 669 663 657 648 645 642 638
784 781 780 778 775 769 764 761 758 753 746 738 740 730 732 730 729 728 726 725 728 728 733 731 733 742 751 754 755 738 725 718 715 713 710 707 706 702 699 698 694 693 691 688 683 678 673 668 662 655 647 641 638 635
779 777 775 775 775 774 769 759 755 748 736 731 727 726 725 722 719 717 718 718 720 721 724 727 728 735 735 728 720 717 715 713 710 708 706 702 701 700 697 695 693 692 690 687 683 679 675 670 664 657 647 637 634 628
773 772 771 770 772 772 766 758 751 746 738 725 723 722 720 716 712 711 711 713 717 720 722 723 718 714 715 709 707 706 704 704 706 707 704 699 697 695 694 694 693 690 687 685 683 680 676 670 664 657 651 646 639 628
769 768 767 766 766 767 762 752 745 738 730 726 717 717 714 712 711 710 708 708 713 717 714 707 703 698 697 696 696 698 699 700 702 703 701 699 694 694 693 692 690 688 687 684 681 675 670 668 664 659 654 647 639 627
766 766 765 764 763 760 755 745 741 733 733 720 719 714 717 718 712 704 701 706 704 696 696 694 692 691 693 694 692 692 693 695 697 697 697 697 695 694 693 691 689 687 685 682 678 675 670 667 662 656 650 642 634 626
762 763 762 760 757 749 739 734 735 728 727 719 719 713 714 714 701 697 706 696 690 683 683 684 684 684 686 687 689 690 691 692 694 694 694 694 692 691 692 690 689 687 684 680 677 673 670 665 660 656 650 644 636 625
758 759 754 750 748 741 735 729 728 728 726 722 723 706 705 707 700 702 699 687 681 680 681 680 682 685 685 686 688 688 688 690 692 693 692 692 692 691 691 690 688 686 684 681 679 675 672 669 665 662 658 654 650 642
754 748 745 738 737 734 729 723 720 727 712 713 712 710 708 706 707 703 689 681 678 677 676 677 679 680 682 683 686 686 686 687 689 691 692 691 691 690 690 689 688 686 684 680 678 677 676 674 671 669 667 664 659 656
742 736 734 729 728 725 718 713 712 710 710 708 709 708 713 707 701 691 685 678 675 674 673 674 675 679 680 681 683 684 684 685 687 690 691 690 689 689 689 689 688 685 684 682 680 678 677 677 674 673 672 670 668 663
730 728 725 721 721 719 718 714 714 716 706 703 709 707 710 699 694 686 679 676 674 669 668 667 669 672 675 677 678 679 681 683 685 687 688 690 691 690 690 690 688 687 685 684 683 681 679 679 678 676 676 674 672 670
719 720 720 719 717 716 709 712 710 706 703 701 701 699 693 692 685 682 678 676 676 672 669 669 670 672 673 674 676 679 681 683 686 688 690 692 691 691 690 690 690 689 688 686 685 685 683 682 682 681 679 678 677 676
708 709 713 712 710 712 706 701 698 692 687 689 694 695 686 680 678 678 676 675 674 675 673 670 671 672 674 675 677 679 681 683 686 689 690 693 693 692 690 690 690 690 691 690 688 687 687 686 686 685 684 683 682 681
701 703 702 702 699 695 688 688 685 682 682 682 681 682 682 678 676 675 675 674 673 673 672 668 668 670 673 677 680 681 683 684 685 687 690 692 692 692 692 690 690 690 689 690 690 690 691 690 690 690 689 687 686 685
689 693 693 694 683 677 678 679 678 679 679 679 678 681 678 677 674 673 673 673 671 671 671 671 673 672 672 674 679 685 686 686 686 687 688 688 689 690 691 692 691 690 690 690 689 690 691 692 693 693 694 694 693 691
686 684 683 682 681 676 673 674 676 675 672 673 673 672 672 674 675 676 677 673 672 672 672 671 669 669 671 672 676 679 683 685 686 688 688 688 689 689 689 690 691 691 691 691 691 692 694 695 697 697 698 697 698 699
677 676 676 674 678 675 668 668 670 669 669 669 665 665 667 670 675 683 682 679 677 676 675 674 674 674 676 678 679 680 681 683 685 687 689 689 689 689 690 691 692 693 691 692 694 696 696 697 699 700 702 703 703 704